Year,Month,Day,Hour,Minute,Value (Times are PST for temperature in C)
2009,06,09,00,00,10.20
2009,06,09,00,01,10.20
2009,06,09,00,02,10.20
2009,06,09,00,03,10.10
2009,06,09,00,04,10.10
2009,06,09,00,05,10.10
2009,06,09,00,06,10.10
2009,06,09,00,07,10.10
2009,06,09,00,08,10.10
2009,06,09,00,09,10.10
2009,06,09,00,10,10.10
2009,06,09,00,11,10.10
2009,06,09,00,12,10.00
2009,06,09,00,18,10.10
2009,06,09,00,19,10.20
2009,06,09,00,20,10.20
2009,06,09,00,21,10.20
2009,06,09,00,22,10.20
2009,06,09,00,23,10.20
2009,06,09,00,24,10.20
2009,06,09,00,25,10.10
2009,06,09,00,26,10.10
2009,06,09,00,27,10.10
2009,06,09,00,28,10.00
2009,06,09,00,29,10.00
2009,06,09,00,30,10.00
2009,06,09,00,31,10.00
2009,06,09,00,32,9.90
2009,06,09,00,33,9.90
2009,06,09,00,34,9.90
2009,06,09,00,35,9.90
2009,06,09,00,36,9.90
2009,06,09,00,37,9.90
2009,06,09,00,38,9.90
2009,06,09,00,39,9.90
2009,06,09,00,40,9.90
2009,06,09,00,41,9.90
2009,06,09,00,42,9.90
2009,06,09,00,43,9.90
2009,06,09,00,44,9.90
2009,06,09,00,45,9.90
2009,06,09,00,46,9.90
2009,06,09,00,47,9.90
2009,06,09,00,48,9.90
2009,06,09,00,49,9.90
2009,06,09,00,50,9.90
2009,06,09,00,51,9.90
2009,06,09,00,52,9.90
2009,06,09,00,53,9.90
2009,06,09,00,54,9.90
2009,06,09,00,55,9.90
2009,06,09,00,56,9.80
2009,06,09,00,57,9.80
2009,06,09,00,58,9.90
2009,06,09,00,59,9.80
2009,06,09,01,00,9.80
2009,06,09,01,01,9.80
2009,06,09,01,02,9.80
2009,06,09,01,03,9.80
2009,06,09,01,04,9.80
2009,06,09,01,05,9.80
2009,06,09,01,06,9.80
2009,06,09,01,07,9.80
2009,06,09,01,08,9.80
2009,06,09,01,09,9.80
2009,06,09,01,10,9.80
2009,06,09,01,11,9.80
2009,06,09,01,12,9.80
2009,06,09,01,13,9.80
2009,06,09,01,14,9.80
2009,06,09,01,15,9.80
2009,06,09,01,16,9.80
2009,06,09,01,17,9.80
2009,06,09,01,18,9.80
2009,06,09,01,19,9.80
2009,06,09,01,20,9.80
2009,06,09,01,21,9.80
2009,06,09,01,22,9.80
2009,06,09,01,23,9.80
2009,06,09,01,24,9.80
2009,06,09,01,25,9.80
2009,06,09,01,26,9.70
2009,06,09,01,27,9.80
2009,06,09,01,28,9.80
2009,06,09,01,29,9.80
2009,06,09,01,30,9.80
2009,06,09,01,31,9.80
2009,06,09,01,32,9.80
2009,06,09,01,33,9.80
2009,06,09,01,34,9.80
2009,06,09,01,35,9.80
2009,06,09,01,36,9.80
2009,06,09,01,37,9.80
2009,06,09,01,38,9.80
2009,06,09,01,39,9.80
2009,06,09,01,40,9.70
2009,06,09,01,41,9.70
2009,06,09,01,42,9.70
2009,06,09,01,43,9.70
2009,06,09,01,44,9.70
2009,06,09,01,45,9.70
2009,06,09,01,46,9.70
2009,06,09,01,47,9.70
2009,06,09,01,48,9.70
2009,06,09,01,49,9.70
2009,06,09,01,50,9.70
2009,06,09,01,51,9.60
2009,06,09,01,52,9.60
2009,06,09,01,53,9.60
2009,06,09,01,54,9.60
2009,06,09,01,55,9.60
2009,06,09,01,56,9.60
2009,06,09,01,57,9.60
2009,06,09,01,58,9.60
2009,06,09,01,59,9.60
2009,06,09,02,00,9.60
2009,06,09,02,01,9.60
2009,06,09,02,02,9.50
2009,06,09,02,03,9.60
2009,06,09,02,04,9.50
2009,06,09,02,05,9.50
2009,06,09,02,06,9.50
2009,06,09,02,07,9.50
2009,06,09,02,08,9.50
2009,06,09,02,09,9.50
2009,06,09,02,10,9.50
2009,06,09,02,11,9.50
2009,06,09,02,12,9.50
2009,06,09,02,13,9.50
2009,06,09,02,14,9.40
2009,06,09,02,15,9.40
2009,06,09,02,16,9.50
2009,06,09,02,17,9.50
2009,06,09,02,18,9.50
2009,06,09,02,19,9.50
2009,06,09,02,20,9.50
2009,06,09,02,21,9.50
2009,06,09,02,22,9.50
2009,06,09,02,23,9.50
2009,06,09,02,24,9.50
2009,06,09,02,25,9.50
2009,06,09,02,26,9.50
2009,06,09,02,27,9.50
2009,06,09,02,28,9.50
2009,06,09,02,29,9.50
2009,06,09,02,30,9.50
2009,06,09,02,31,9.60
2009,06,09,02,32,9.60
2009,06,09,02,33,9.60
2009,06,09,02,34,9.50
2009,06,09,02,35,9.50
2009,06,09,02,36,9.50
2009,06,09,02,37,9.50
2009,06,09,02,38,9.50
2009,06,09,02,39,9.50
2009,06,09,02,40,9.50
2009,06,09,02,41,9.60
2009,06,09,02,42,9.60
2009,06,09,02,43,9.60
2009,06,09,02,44,9.60
2009,06,09,02,45,9.60
2009,06,09,02,46,9.60
2009,06,09,02,47,9.60
2009,06,09,02,48,9.60
2009,06,09,02,49,9.60
2009,06,09,02,50,9.60
2009,06,09,02,51,9.50
2009,06,09,02,52,9.50
2009,06,09,02,53,9.50
2009,06,09,02,54,9.50
2009,06,09,02,55,9.50
2009,06,09,02,56,9.50
2009,06,09,02,57,9.50
2009,06,09,02,58,9.50
2009,06,09,02,59,9.50
2009,06,09,03,00,9.50
2009,06,09,03,01,9.50
2009,06,09,03,02,9.50
2009,06,09,03,03,9.50
2009,06,09,03,04,9.60
2009,06,09,03,05,9.60
2009,06,09,03,06,9.60
2009,06,09,03,07,9.50
2009,06,09,03,08,9.50
2009,06,09,03,09,9.50
2009,06,09,03,10,9.40
2009,06,09,03,11,9.40
2009,06,09,03,12,9.40
2009,06,09,03,13,9.40
2009,06,09,03,14,9.40
2009,06,09,03,15,9.40
2009,06,09,03,16,9.40
2009,06,09,03,17,9.40
2009,06,09,03,18,9.40
2009,06,09,03,19,9.40
2009,06,09,03,20,9.40
2009,06,09,03,21,9.40
2009,06,09,03,22,9.40
2009,06,09,03,23,9.40
2009,06,09,03,24,9.40
2009,06,09,03,25,9.40
2009,06,09,03,26,9.40
2009,06,09,03,27,9.40
2009,06,09,03,28,9.40
2009,06,09,03,29,9.40
2009,06,09,03,30,9.40
2009,06,09,03,31,9.40
2009,06,09,03,32,9.40
2009,06,09,03,33,9.40
2009,06,09,03,34,9.40
2009,06,09,03,35,9.40
2009,06,09,03,36,9.40
2009,06,09,03,37,9.40
2009,06,09,03,38,9.40
2009,06,09,03,39,9.40
2009,06,09,03,40,9.40
2009,06,09,03,41,9.40
2009,06,09,03,42,9.30
2009,06,09,03,43,9.30
2009,06,09,03,44,9.30
2009,06,09,03,45,9.30
2009,06,09,03,46,9.30
2009,06,09,03,47,9.30
2009,06,09,03,48,9.30
2009,06,09,03,49,9.30
2009,06,09,03,50,9.30
2009,06,09,03,51,9.30
2009,06,09,03,52,9.30
2009,06,09,03,53,9.30
2009,06,09,03,54,9.30
2009,06,09,03,55,9.30
2009,06,09,03,56,9.30
2009,06,09,03,57,9.20
2009,06,09,03,58,9.20
2009,06,09,03,59,9.20
2009,06,09,04,00,9.20
2009,06,09,04,01,9.30
2009,06,09,04,02,9.30
2009,06,09,04,03,9.30
2009,06,09,04,04,9.30
2009,06,09,04,05,9.30
2009,06,09,04,06,9.30
2009,06,09,04,07,9.20
2009,06,09,04,08,9.20
2009,06,09,04,09,9.20
2009,06,09,04,10,9.20
2009,06,09,04,11,9.20
2009,06,09,04,12,9.20
2009,06,09,04,13,9.20
2009,06,09,04,14,9.20
2009,06,09,04,15,9.20
2009,06,09,04,16,9.20
2009,06,09,04,17,9.20
2009,06,09,04,18,9.20
2009,06,09,04,19,9.20
2009,06,09,04,20,9.20
2009,06,09,04,21,9.20
2009,06,09,04,22,9.20
2009,06,09,04,23,9.20
2009,06,09,04,24,9.20
2009,06,09,04,25,9.20
2009,06,09,04,26,9.20
2009,06,09,04,27,9.10
2009,06,09,04,28,9.10
2009,06,09,04,29,9.10
2009,06,09,04,30,9.10
2009,06,09,04,31,9.10
2009,06,09,04,32,9.10
2009,06,09,04,33,9.00
2009,06,09,04,34,9.00
2009,06,09,04,35,9.00
2009,06,09,04,36,9.00
2009,06,09,04,37,9.00
2009,06,09,04,38,9.00
2009,06,09,04,39,9.00
2009,06,09,04,40,9.00
2009,06,09,04,41,9.10
2009,06,09,04,42,9.10
2009,06,09,04,43,9.10
2009,06,09,04,44,9.10
2009,06,09,04,45,9.10
2009,06,09,04,46,9.10
2009,06,09,04,47,9.10
2009,06,09,04,48,9.00
2009,06,09,04,49,9.00
2009,06,09,04,50,9.00
2009,06,09,04,51,9.00
2009,06,09,04,52,9.00
2009,06,09,04,53,9.00
2009,06,09,04,54,9.00
2009,06,09,04,55,9.00
2009,06,09,04,56,9.00
2009,06,09,04,57,9.00
2009,06,09,04,58,9.10
2009,06,09,04,59,9.10
2009,06,09,05,00,9.10
2009,06,09,05,01,9.10
2009,06,09,05,02,9.10
2009,06,09,05,03,9.10
2009,06,09,05,04,9.10
2009,06,09,05,05,9.10
2009,06,09,05,06,9.10
2009,06,09,05,07,9.20
2009,06,09,05,08,9.10
2009,06,09,05,09,9.10
2009,06,09,05,10,9.10
2009,06,09,05,11,9.10
2009,06,09,05,12,9.00
2009,06,09,05,13,9.00
2009,06,09,05,14,9.00
2009,06,09,05,15,9.00
2009,06,09,05,16,8.90
2009,06,09,05,17,8.90
2009,06,09,05,18,8.90
2009,06,09,05,19,8.90
2009,06,09,05,20,8.90
2009,06,09,05,21,8.90
2009,06,09,05,22,8.90
2009,06,09,05,23,8.90
2009,06,09,05,24,8.90
2009,06,09,05,25,8.90
2009,06,09,05,26,8.90
2009,06,09,05,27,8.90
2009,06,09,05,28,8.90
2009,06,09,05,29,8.90
2009,06,09,05,30,8.90
2009,06,09,05,31,8.90
2009,06,09,05,32,8.90
2009,06,09,05,33,8.90
2009,06,09,05,34,8.90
2009,06,09,05,35,8.90
2009,06,09,05,36,9.00
2009,06,09,05,37,9.00
2009,06,09,05,38,9.00
2009,06,09,05,39,9.00
2009,06,09,05,40,9.00
2009,06,09,05,41,9.00
2009,06,09,05,42,9.00
2009,06,09,05,43,9.00
2009,06,09,05,44,9.00
2009,06,09,05,45,9.00
2009,06,09,05,46,9.00
2009,06,09,05,47,9.00
2009,06,09,05,48,8.90
2009,06,09,05,49,8.90
2009,06,09,05,50,8.90
2009,06,09,05,51,8.90
2009,06,09,05,52,8.90
2009,06,09,05,53,8.90
2009,06,09,05,54,8.90
2009,06,09,05,55,8.90
2009,06,09,05,56,8.90
2009,06,09,05,57,8.90
2009,06,09,05,58,8.90
2009,06,09,05,59,8.90
2009,06,09,06,00,8.90
2009,06,09,06,01,8.90
2009,06,09,06,02,8.90
2009,06,09,06,03,8.90
2009,06,09,06,04,8.90
2009,06,09,06,05,8.90
2009,06,09,06,06,8.90
2009,06,09,06,07,8.90
2009,06,09,06,08,8.90
2009,06,09,06,09,8.90
2009,06,09,06,10,8.90
2009,06,09,06,11,8.90
2009,06,09,06,12,9.00
2009,06,09,06,13,9.00
2009,06,09,06,14,9.10
2009,06,09,06,15,9.10
2009,06,09,06,16,9.20
2009,06,09,06,17,9.20
2009,06,09,06,18,9.30
2009,06,09,06,19,9.30
2009,06,09,06,20,9.30
2009,06,09,06,21,9.30
2009,06,09,06,22,9.40
2009,06,09,06,23,9.40
2009,06,09,06,24,9.40
2009,06,09,06,25,9.40
2009,06,09,06,26,9.40
2009,06,09,06,27,9.40
2009,06,09,06,28,9.40
2009,06,09,06,29,9.50
2009,06,09,06,30,9.50
2009,06,09,06,31,9.50
2009,06,09,06,32,9.60
2009,06,09,06,33,9.60
2009,06,09,06,34,9.60
2009,06,09,06,35,9.60
2009,06,09,06,36,9.60
2009,06,09,06,37,9.60
2009,06,09,06,38,9.60
2009,06,09,06,39,9.70
2009,06,09,06,40,9.70
2009,06,09,06,41,9.70
2009,06,09,06,42,9.70
2009,06,09,06,43,9.80
2009,06,09,06,44,9.80
2009,06,09,06,45,9.80
2009,06,09,06,46,9.80
2009,06,09,06,47,9.80
2009,06,09,06,48,9.90
2009,06,09,06,49,9.90
2009,06,09,06,50,9.90
2009,06,09,06,51,9.90
2009,06,09,06,52,9.90
2009,06,09,06,53,9.90
2009,06,09,06,54,9.90
2009,06,09,06,55,10.00
2009,06,09,06,56,10.00
2009,06,09,06,57,10.00
2009,06,09,06,58,10.10
2009,06,09,06,59,10.10
2009,06,09,07,00,10.10
2009,06,09,07,01,10.20
2009,06,09,07,02,10.20
2009,06,09,07,03,10.30
2009,06,09,07,04,10.30
2009,06,09,07,05,10.30
2009,06,09,07,06,10.40
2009,06,09,07,07,10.40
2009,06,09,07,08,10.40
2009,06,09,07,09,10.50
2009,06,09,07,10,10.50
2009,06,09,07,11,10.60
2009,06,09,07,12,10.60
2009,06,09,07,13,10.60
2009,06,09,07,14,10.60
2009,06,09,07,15,10.60
2009,06,09,07,16,10.60
2009,06,09,07,17,10.70
2009,06,09,07,18,10.70
2009,06,09,07,19,10.80
2009,06,09,07,20,10.80
2009,06,09,07,21,10.80
2009,06,09,07,22,10.90
2009,06,09,07,23,10.90
2009,06,09,07,24,11.00
2009,06,09,07,25,11.00
2009,06,09,07,26,11.00
2009,06,09,07,27,11.10
2009,06,09,07,28,11.10
2009,06,09,07,29,11.20
2009,06,09,07,30,11.20
2009,06,09,07,31,11.20
2009,06,09,07,32,11.30
2009,06,09,07,33,11.30
2009,06,09,07,34,11.40
2009,06,09,07,35,11.40
2009,06,09,07,36,11.50
2009,06,09,07,37,11.50
2009,06,09,07,38,11.60
2009,06,09,07,39,11.60
2009,06,09,07,40,11.60
2009,06,09,07,41,11.70
2009,06,09,07,42,11.70
2009,06,09,07,43,11.80
2009,06,09,07,44,11.90
2009,06,09,07,45,11.90
2009,06,09,07,46,11.90
2009,06,09,07,47,12.00
2009,06,09,07,48,12.10
2009,06,09,07,49,12.10
2009,06,09,07,50,12.20
2009,06,09,07,51,12.20
2009,06,09,07,52,12.20
2009,06,09,07,53,12.30
2009,06,09,07,54,12.30
2009,06,09,07,55,12.30
2009,06,09,07,56,12.40
2009,06,09,07,57,12.50
2009,06,09,07,58,12.60
2009,06,09,07,59,12.60
2009,06,09,08,00,12.70
2009,06,09,08,01,12.70
2009,06,09,08,02,12.80
2009,06,09,08,03,12.80
2009,06,09,08,04,12.90
2009,06,09,08,05,12.90
2009,06,09,08,06,13.00
2009,06,09,08,07,13.10
2009,06,09,08,08,13.10
2009,06,09,08,09,13.10
2009,06,09,08,10,13.20
2009,06,09,08,11,13.20
2009,06,09,08,12,13.30
2009,06,09,08,13,13.30
2009,06,09,08,14,13.30
2009,06,09,08,15,13.30
2009,06,09,08,16,13.40
2009,06,09,08,17,13.40
2009,06,09,08,18,13.50
2009,06,09,08,19,13.60
2009,06,09,08,20,13.60
2009,06,09,08,21,13.70
2009,06,09,08,22,13.70
2009,06,09,08,23,13.70
2009,06,09,08,24,13.80
2009,06,09,08,25,13.80
2009,06,09,08,26,13.90
2009,06,09,08,27,13.90
2009,06,09,08,28,14.00
2009,06,09,08,29,14.10
2009,06,09,08,30,14.10
2009,06,09,08,31,14.20
2009,06,09,08,32,14.30
2009,06,09,08,33,14.30
2009,06,09,08,34,14.40
2009,06,09,08,35,14.40
2009,06,09,08,36,14.50
2009,06,09,08,37,14.50
2009,06,09,08,38,14.60
2009,06,09,08,39,14.60
2009,06,09,08,40,14.60
2009,06,09,08,41,14.60
2009,06,09,08,42,14.60
2009,06,09,08,43,14.60
2009,06,09,08,44,14.60
2009,06,09,08,45,14.50
2009,06,09,08,46,14.50
2009,06,09,08,47,14.40
2009,06,09,08,48,14.40
2009,06,09,08,49,14.40
2009,06,09,08,50,14.40
2009,06,09,08,51,14.40
2009,06,09,08,52,14.50
2009,06,09,08,53,14.50
2009,06,09,08,54,14.50
2009,06,09,08,55,14.60
2009,06,09,08,56,14.60
2009,06,09,08,57,14.70
2009,06,09,08,58,14.70
2009,06,09,08,59,14.80
2009,06,09,09,00,14.80
2009,06,09,09,01,14.80
2009,06,09,09,02,14.90
2009,06,09,09,03,15.00
2009,06,09,09,04,15.00
2009,06,09,09,05,15.00
2009,06,09,09,06,15.00
2009,06,09,09,07,15.10
2009,06,09,09,08,15.20
2009,06,09,09,09,15.30
2009,06,09,09,10,15.40
2009,06,09,09,11,15.40
2009,06,09,09,12,15.50
2009,06,09,09,13,15.60
2009,06,09,09,14,15.60
2009,06,09,09,15,15.70
2009,06,09,09,16,15.70
2009,06,09,09,17,15.80
2009,06,09,09,18,15.80
2009,06,09,09,19,15.90
2009,06,09,09,20,15.90
2009,06,09,09,21,15.90
2009,06,09,09,22,15.90
2009,06,09,09,23,15.90
2009,06,09,09,24,15.90
2009,06,09,09,25,16.00
2009,06,09,09,26,16.00
2009,06,09,09,27,16.00
2009,06,09,09,28,16.10
2009,06,09,09,29,16.10
2009,06,09,09,30,16.10
2009,06,09,09,31,16.10
2009,06,09,09,32,16.20
2009,06,09,09,33,16.20
2009,06,09,09,34,16.20
2009,06,09,09,35,16.30
2009,06,09,09,36,16.30
2009,06,09,09,37,16.30
2009,06,09,09,38,16.30
2009,06,09,09,39,16.30
2009,06,09,09,40,16.40
2009,06,09,09,41,16.40
2009,06,09,09,42,16.40
2009,06,09,09,43,16.40
2009,06,09,09,44,16.40
2009,06,09,09,45,16.40
2009,06,09,09,46,16.40
2009,06,09,09,47,16.40
2009,06,09,09,48,16.40
2009,06,09,09,49,16.50
2009,06,09,09,50,16.50
2009,06,09,09,51,16.50
2009,06,09,09,52,16.60
2009,06,09,09,53,16.60
2009,06,09,09,54,16.60
2009,06,09,09,55,16.60
2009,06,09,09,56,16.70
2009,06,09,09,57,16.70
2009,06,09,09,58,16.70
2009,06,09,09,59,16.70
2009,06,09,10,00,16.70
2009,06,09,10,01,16.70
2009,06,09,10,02,16.80
2009,06,09,10,03,16.80
2009,06,09,10,04,16.80
2009,06,09,10,05,16.80
2009,06,09,10,06,16.80
2009,06,09,10,07,16.90
2009,06,09,10,08,16.90
2009,06,09,10,09,16.90
2009,06,09,10,10,16.90
2009,06,09,10,11,16.90
2009,06,09,10,12,17.00
2009,06,09,10,13,17.00
2009,06,09,10,14,17.10
2009,06,09,10,15,17.10
2009,06,09,10,16,17.20
2009,06,09,10,17,17.20
2009,06,09,10,18,17.30
2009,06,09,10,19,17.30
2009,06,09,10,20,17.40
2009,06,09,10,21,17.40
2009,06,09,10,22,17.40
2009,06,09,10,23,17.50
2009,06,09,10,24,17.50
2009,06,09,10,25,17.60
2009,06,09,10,26,17.70
2009,06,09,10,27,17.70
2009,06,09,10,28,17.80
2009,06,09,10,29,17.80
2009,06,09,10,30,17.80
2009,06,09,10,31,17.90
2009,06,09,10,32,18.00
2009,06,09,10,33,18.00
2009,06,09,10,34,18.00
2009,06,09,10,35,18.00
2009,06,09,10,36,18.00
2009,06,09,10,37,18.00
2009,06,09,10,38,18.10
2009,06,09,10,39,18.10
2009,06,09,10,40,18.10
2009,06,09,10,41,18.00
2009,06,09,10,42,18.00
2009,06,09,10,43,18.00
2009,06,09,10,44,17.90
2009,06,09,10,45,17.80
2009,06,09,10,46,17.70
2009,06,09,10,47,17.60
2009,06,09,10,48,17.60
2009,06,09,10,49,17.60
2009,06,09,10,50,17.60
2009,06,09,10,51,17.60
2009,06,09,10,52,17.60
2009,06,09,10,53,17.60
2009,06,09,10,54,17.60
2009,06,09,10,55,17.70
2009,06,09,10,56,17.80
2009,06,09,10,57,17.90
2009,06,09,10,58,17.90
2009,06,09,10,59,17.90
2009,06,09,11,00,18.00
2009,06,09,11,01,18.00
2009,06,09,11,02,18.00
2009,06,09,11,03,18.10
2009,06,09,11,04,18.10
2009,06,09,11,05,18.10
2009,06,09,11,06,18.20
2009,06,09,11,07,18.20
2009,06,09,11,08,18.20
2009,06,09,11,09,18.20
2009,06,09,11,10,18.20
2009,06,09,11,11,18.20
2009,06,09,11,12,18.10
2009,06,09,11,13,18.10
2009,06,09,11,14,18.00
2009,06,09,11,15,18.00
2009,06,09,11,16,18.00
2009,06,09,11,17,18.10
2009,06,09,11,18,18.10
2009,06,09,11,19,18.10
2009,06,09,11,20,18.10
2009,06,09,11,21,18.10
2009,06,09,11,22,18.10
2009,06,09,11,23,18.20
2009,06,09,11,24,18.10
2009,06,09,11,25,18.10
2009,06,09,11,26,18.10
2009,06,09,11,27,18.10
2009,06,09,11,28,18.10
2009,06,09,11,29,18.20
2009,06,09,11,30,18.20
2009,06,09,11,31,18.20
2009,06,09,11,32,18.10
2009,06,09,11,33,18.00
2009,06,09,11,34,18.00
2009,06,09,11,35,18.00
2009,06,09,11,36,17.90
2009,06,09,11,37,17.80
2009,06,09,11,38,17.80
2009,06,09,11,39,17.80
2009,06,09,11,40,17.90
2009,06,09,11,41,18.00
2009,06,09,11,42,18.10
2009,06,09,11,43,18.20
2009,06,09,11,44,18.20
2009,06,09,11,45,18.30
2009,06,09,11,46,18.30
2009,06,09,11,47,18.30
2009,06,09,11,48,18.30
2009,06,09,11,49,18.30
2009,06,09,11,50,18.30
2009,06,09,11,51,18.30
2009,06,09,11,52,18.20
2009,06,09,11,53,18.10
2009,06,09,11,54,18.00
2009,06,09,11,55,17.90
2009,06,09,11,56,17.80
2009,06,09,11,57,17.80
2009,06,09,11,58,17.70
2009,06,09,11,59,17.60
2009,06,09,12,00,17.60
2009,06,09,12,01,17.50
2009,06,09,12,02,17.50
2009,06,09,12,03,17.50
2009,06,09,12,04,17.50
2009,06,09,12,05,17.60
2009,06,09,12,06,17.60
2009,06,09,12,07,17.60
2009,06,09,12,08,17.70
2009,06,09,12,09,17.70
2009,06,09,12,10,17.80
2009,06,09,12,11,18.00
2009,06,09,12,12,18.10
2009,06,09,12,13,18.20
2009,06,09,12,14,18.30
2009,06,09,12,15,18.40
2009,06,09,12,16,18.50
2009,06,09,12,17,18.60
2009,06,09,12,18,18.70
2009,06,09,12,19,18.80
2009,06,09,12,20,18.90
2009,06,09,12,21,18.90
2009,06,09,12,22,18.90
2009,06,09,12,23,18.80
2009,06,09,12,24,18.60
2009,06,09,12,25,18.50
2009,06,09,12,26,18.40
2009,06,09,12,27,18.40
2009,06,09,12,28,18.50
2009,06,09,12,29,18.50
2009,06,09,12,30,18.50
2009,06,09,12,31,18.60
2009,06,09,12,32,18.60
2009,06,09,12,33,18.60
2009,06,09,12,34,18.50
2009,06,09,12,35,18.50
2009,06,09,12,36,18.40
2009,06,09,12,37,18.40
2009,06,09,12,38,18.40
2009,06,09,12,39,18.40
2009,06,09,12,40,18.40
2009,06,09,12,41,18.30
2009,06,09,12,42,18.40
2009,06,09,12,43,18.40
2009,06,09,12,44,18.50
2009,06,09,12,45,18.70
2009,06,09,12,46,18.80
2009,06,09,12,47,18.90
2009,06,09,12,48,18.80
2009,06,09,12,49,18.70
2009,06,09,12,50,18.70
2009,06,09,12,51,18.70
2009,06,09,12,52,18.60
2009,06,09,12,53,18.60
2009,06,09,12,54,18.50
2009,06,09,12,55,18.40
2009,06,09,12,56,18.30
2009,06,09,12,57,18.30
2009,06,09,12,58,18.40
2009,06,09,12,59,18.40
2009,06,09,13,00,18.50
2009,06,09,13,01,18.50
2009,06,09,13,02,18.40
2009,06,09,13,03,18.40
2009,06,09,13,04,18.30
2009,06,09,13,05,18.30
2009,06,09,13,06,18.30
2009,06,09,13,07,18.40
2009,06,09,13,08,18.40
2009,06,09,13,09,18.50
2009,06,09,13,10,18.60
2009,06,09,13,11,18.70
2009,06,09,13,12,18.90
2009,06,09,13,13,19.00
2009,06,09,13,14,19.10
2009,06,09,13,15,19.30
2009,06,09,13,16,19.30
2009,06,09,13,17,19.40
2009,06,09,13,18,19.40
2009,06,09,13,19,19.40
2009,06,09,13,20,19.30
2009,06,09,13,21,19.20
2009,06,09,13,22,19.20
2009,06,09,13,23,19.10
2009,06,09,13,24,19.10
2009,06,09,13,25,19.10
2009,06,09,13,26,19.10
2009,06,09,13,27,19.00
2009,06,09,13,28,19.00
2009,06,09,13,29,19.10
2009,06,09,13,30,19.10
2009,06,09,13,31,19.20
2009,06,09,13,32,19.20
2009,06,09,13,33,19.20
2009,06,09,13,34,19.20
2009,06,09,13,35,19.30
2009,06,09,13,36,19.40
2009,06,09,13,37,19.50
2009,06,09,13,38,19.50
2009,06,09,13,39,19.50
2009,06,09,13,40,19.60
2009,06,09,13,41,19.60
2009,06,09,13,42,19.70
2009,06,09,13,43,19.70
2009,06,09,13,44,19.80
2009,06,09,13,45,19.80
2009,06,09,13,46,19.70
2009,06,09,13,47,19.70
2009,06,09,13,48,19.60
2009,06,09,13,49,19.50
2009,06,09,13,50,19.40
2009,06,09,13,51,19.40
2009,06,09,13,52,19.30
2009,06,09,13,53,19.30
2009,06,09,13,54,19.40
2009,06,09,13,55,19.50
2009,06,09,13,56,19.60
2009,06,09,13,57,19.60
2009,06,09,13,58,19.70
2009,06,09,13,59,19.60
2009,06,09,14,00,19.50
2009,06,09,14,01,19.40
2009,06,09,14,02,19.40
2009,06,09,14,03,19.40
2009,06,09,14,04,19.40
2009,06,09,14,05,19.40
2009,06,09,14,06,19.40
2009,06,09,14,07,19.40
2009,06,09,14,08,19.40
2009,06,09,14,09,19.40
2009,06,09,14,10,19.40
2009,06,09,14,11,19.40
2009,06,09,14,12,19.30
2009,06,09,14,13,19.40
2009,06,09,14,14,19.40
2009,06,09,14,15,19.50
2009,06,09,14,16,19.50
2009,06,09,14,17,19.40
2009,06,09,14,18,19.30
2009,06,09,14,19,19.20
2009,06,09,14,20,19.20
2009,06,09,14,21,19.10
2009,06,09,14,22,19.10
2009,06,09,14,23,19.10
2009,06,09,14,24,19.10
2009,06,09,14,25,19.20
2009,06,09,14,26,19.10
2009,06,09,14,27,19.00
2009,06,09,14,28,18.90
2009,06,09,14,29,18.90
2009,06,09,14,30,18.80
2009,06,09,14,31,18.80
2009,06,09,14,32,18.80
2009,06,09,14,33,18.90
2009,06,09,14,34,19.00
2009,06,09,14,35,19.10
2009,06,09,14,36,19.20
2009,06,09,14,37,19.40
2009,06,09,14,38,19.40
2009,06,09,14,39,19.50
2009,06,09,14,40,19.60
2009,06,09,14,41,19.60
2009,06,09,14,42,19.50
2009,06,09,14,43,19.40
2009,06,09,14,44,19.40
2009,06,09,14,45,19.40
2009,06,09,14,46,19.30
2009,06,09,14,47,19.30
2009,06,09,14,48,19.30
2009,06,09,14,49,19.30
2009,06,09,14,50,19.40
2009,06,09,14,51,19.40
2009,06,09,14,52,19.50
2009,06,09,14,53,19.50
2009,06,09,14,54,19.60
2009,06,09,14,55,19.70
2009,06,09,14,56,19.80
2009,06,09,14,57,19.90
2009,06,09,14,58,19.90
2009,06,09,14,59,19.90
2009,06,09,15,00,19.90
2009,06,09,15,01,20.00
2009,06,09,15,02,20.00
2009,06,09,15,03,20.10
2009,06,09,15,04,20.20
2009,06,09,15,05,20.20
2009,06,09,15,06,20.30
2009,06,09,15,07,20.30
2009,06,09,15,08,20.20
2009,06,09,15,09,20.20
2009,06,09,15,10,20.20
2009,06,09,15,11,20.10
2009,06,09,15,12,20.10
2009,06,09,15,13,20.10
2009,06,09,15,14,20.20
2009,06,09,15,15,20.20
2009,06,09,15,16,20.20
2009,06,09,15,17,20.20
2009,06,09,15,18,20.20
2009,06,09,15,19,20.20
2009,06,09,15,20,20.20
2009,06,09,15,21,20.20
2009,06,09,15,22,20.20
2009,06,09,15,23,20.20
2009,06,09,15,24,20.20
2009,06,09,15,25,20.20
2009,06,09,15,26,20.10
2009,06,09,15,27,20.00
2009,06,09,15,28,20.00
2009,06,09,15,29,19.90
2009,06,09,15,30,19.90
2009,06,09,15,31,19.90
2009,06,09,15,32,19.90
2009,06,09,15,33,20.00
2009,06,09,15,34,20.00
2009,06,09,15,35,20.10
2009,06,09,15,36,20.20
2009,06,09,15,37,20.30
2009,06,09,15,38,20.40
2009,06,09,15,39,20.40
2009,06,09,15,40,20.50
2009,06,09,15,41,20.50
2009,06,09,15,42,20.40
2009,06,09,15,43,20.30
2009,06,09,15,44,20.20
2009,06,09,15,45,20.20
2009,06,09,15,46,20.30
2009,06,09,15,47,20.30
2009,06,09,15,48,20.30
2009,06,09,15,49,20.40
2009,06,09,15,50,20.50
2009,06,09,15,51,20.50
2009,06,09,15,52,20.50
2009,06,09,15,53,20.60
2009,06,09,15,54,20.70
2009,06,09,15,55,20.80
2009,06,09,15,56,20.90
2009,06,09,15,57,21.00
2009,06,09,15,58,21.10
2009,06,09,15,59,21.10
2009,06,09,16,00,21.10
2009,06,09,16,01,21.00
2009,06,09,16,02,20.90
2009,06,09,16,03,20.90
2009,06,09,16,04,20.80
2009,06,09,16,05,20.80
2009,06,09,16,06,20.80
2009,06,09,16,07,20.80
2009,06,09,16,08,20.70
2009,06,09,16,09,20.70
2009,06,09,16,10,20.80
2009,06,09,16,11,20.90
2009,06,09,16,12,21.00
2009,06,09,16,13,21.00
2009,06,09,16,14,21.00
2009,06,09,16,15,21.00
2009,06,09,16,16,21.00
2009,06,09,16,17,21.00
2009,06,09,16,18,21.00
2009,06,09,16,19,20.90
2009,06,09,16,20,20.90
2009,06,09,16,21,20.90
2009,06,09,16,22,21.00
2009,06,09,16,23,21.00
2009,06,09,16,24,21.10
2009,06,09,16,25,21.10
2009,06,09,16,26,21.20
2009,06,09,16,27,21.30
2009,06,09,16,28,21.20
2009,06,09,16,29,21.30
2009,06,09,16,30,21.30
2009,06,09,16,31,21.20
2009,06,09,16,32,21.20
2009,06,09,16,33,21.20
2009,06,09,16,34,21.30
2009,06,09,16,35,21.30
2009,06,09,16,36,21.30
2009,06,09,16,37,21.40
2009,06,09,16,38,21.40
2009,06,09,16,39,21.40
2009,06,09,16,40,21.40
2009,06,09,16,41,21.40
2009,06,09,16,42,21.40
2009,06,09,16,43,21.30
2009,06,09,16,44,21.30
2009,06,09,16,45,21.30
2009,06,09,16,46,21.30
2009,06,09,16,47,21.30
2009,06,09,16,48,21.30
2009,06,09,16,49,21.30
2009,06,09,16,50,21.30
2009,06,09,16,51,21.30
2009,06,09,16,52,21.30
2009,06,09,16,53,21.20
2009,06,09,16,54,21.20
2009,06,09,16,55,21.20
2009,06,09,16,56,21.20
2009,06,09,16,57,21.20
2009,06,09,16,58,21.20
2009,06,09,16,59,21.20
2009,06,09,17,00,21.20
2009,06,09,17,01,21.20
2009,06,09,17,02,21.10
2009,06,09,17,03,21.10
2009,06,09,17,04,21.10
2009,06,09,17,05,21.10
2009,06,09,17,06,21.10
2009,06,09,17,07,21.20
2009,06,09,17,08,21.20
2009,06,09,17,09,21.20
2009,06,09,17,10,21.20
2009,06,09,17,11,21.30
2009,06,09,17,12,21.30
2009,06,09,17,13,21.30
2009,06,09,17,14,21.30
2009,06,09,17,15,21.20
2009,06,09,17,16,21.00
2009,06,09,17,17,21.00
2009,06,09,17,18,21.00
2009,06,09,17,19,21.00
2009,06,09,17,20,21.00
2009,06,09,17,21,21.10
2009,06,09,17,22,21.10
2009,06,09,17,23,21.10
2009,06,09,17,24,21.00
2009,06,09,17,25,21.00
2009,06,09,17,26,20.90
2009,06,09,17,27,20.90
2009,06,09,17,28,20.90
2009,06,09,17,29,20.80
2009,06,09,17,30,20.80
2009,06,09,17,31,20.80
2009,06,09,17,32,20.80
2009,06,09,17,33,20.90
2009,06,09,17,34,20.90
2009,06,09,17,35,20.90
2009,06,09,17,36,20.80
2009,06,09,17,37,20.90
2009,06,09,17,38,20.90
2009,06,09,17,39,20.90
2009,06,09,17,40,20.90
2009,06,09,17,41,20.90